Mt Rainier
Paradise
Latest observation 08/31 19:00 PDT
| Time (PDT) | Temp °F 5400' | RH % 5400' | Min mph 5380' | Spd mph 5380' | Gust mph 5380' | Dir ° 5380' | Pcp1 in 5400' | PcpSum in 5400' | 24Sno in 5400' | SnoHt in 5400' | SR W/m² 5380' |
|---|---|---|---|---|---|---|---|---|---|---|---|
| 08/31 19:00 | 60 | 69 | 0 | 2 | 6 | 259 | 0.00 | 0.00 | 15.3 | 5.6 | 2705 |
| 08/31 18:00 | 68 | 53 | 0 | 2 | 6 | 277 | 0.00 | 0.00 | 16.7 | 5.7 | 1856 |
| 08/31 17:00 | 69 | 37 | 0 | 2 | 8 | 253 | 0.00 | 0.00 | 17.6 | 5.7 | 1988 |
| 08/31 16:00 | 70 | 28 | 0 | 4 | 12 | 200 | 0.00 | 0.00 | 17.1 | 5.9 | 1589 |
| 08/31 15:00 | 69 | 30 | 0 | 3 | 14 | 123 | 0.00 | 0.00 | 16.6 | 5.3 | 1814 |
| 08/31 14:00 | 67 | 32 | 0 | 2 | 8 | 158 | 0.00 | 0.00 | 19.4 | 5.4 | 1784 |
| 08/31 13:00 | 66 | 34 | 0 | 1 | 8 | 101 | 0.00 | 0.00 | 18.3 | 5.9 | 1859 |
| 08/31 12:00 | 63 | 47 | 0 | 1 | 9 | 106 | 0.00 | 0.00 | 17.6 | 5.6 | 1796 |
| 08/31 11:00 | 62 | 50 | 0 | 0 | 1 | 102 | 0.00 | 0.00 | 17.5 | 5.9 | 1553 |
| 08/31 10:00 | 59 | 53 | 0 | 0 | 6 | 99 | 0.00 | 0.00 | 16.6 | 5.1 | 2059 |
| 08/31 09:00 | 57 | 57 | 0 | 1 | 8 | 97 | 0.00 | 0.00 | 15.9 | 5.4 | 2846 |
| 08/31 08:00 | 54 | 58 | 0 | 0 | 1 | 51 | 0.00 | 0.00 | 15.2 | 5.1 | 2679 |
| 08/31 07:00 | 50 | 63 | 0 | 0 | 2 | 35 | 0.00 | 0.00 | 14.7 | 5.1 | 2380 |
| 08/31 06:00 | 51 | 61 | 0 | 0 | 4 | 10 | 0.00 | 0.00 | 14.1 | 5.1 | 845 |
| 08/31 05:00 | 52 | 61 | 0 | 0 | 2 | 28 | 0.00 | 0.00 | 14.8 | 5.1 | 592 |
| 08/31 04:00 | 51 | 64 | 0 | 0 | 1 | 71 | 0.00 | 0.00 | 14.9 | 5.1 | 628 |
| 08/31 03:00 | 50 | 67 | 0 | 0 | 2 | 28 | 0.00 | 0.00 | 15.3 | 4.9 | 654 |
| 08/31 02:00 | 50 | 71 | 0 | 0 | 1 | 137 | 0.00 | 0.00 | 14.5 | 5.3 | 681 |
| 08/31 01:00 | 51 | 69 | 0 | 1 | 4 | 25 | 0.00 | 0.00 | 13.4 | 5.5 | 714 |
| 08/31 00:00 | 50 | 78 | 0 | 1 | 2 | 35 | 0.00 | 0.00 | 14.5 | 5.2 | 691 |
| 08/30 23:00 | 47 | 84 | 0 | 0 | 1 | 36 | 0.00 | 0.00 | 12.7 | 5.1 | 633 |
| 08/30 22:00 | 46 | 91 | 0 | 0 | 1 | 23 | 0.00 | 0.00 | 13.5 | 4.8 | 700 |
| 08/30 21:00 | 46 | 98 | 0 | 0 | 3 | 41 | 0.00 | 0.00 | 13.0 | 4.9 | 1488 |
| 08/30 20:00 | 45 | 100 | 0 | 0 | 2 | 346 | 0.00 | 0.00 | 17.0 | 4.7 | 2546 |

